Mobile, AL

8:38 AM CDT on May 23, 2017 (GMT -0500)
Mobile Regional

Weather History for KMOB - March, 2014

Change the Weather History Date:

Thursday, March 13, 2014

  Actual Average Record
Temperature  
Mean Temperature 49 °F 60 °F  
Max Temperature 64 °F 71 °F 85 °F (1980)
Min Temperature 34 °F 49 °F 28 °F (1993)
Degree Days  
Heating Degree Days 16 7  
Month to date heating degree days 99  
Since 1 July heating degree days 1541  
Cooling Degree Days 0 1  
Month to date cooling degree days 13  
Year to date cooling degree days 29  
Moisture  
Dew Point 32 °F    
Average Humidity 56    
Maximum Humidity 92    
Minimum Humidity 17    
Precipitation  
Precipitation 0.00 in 0.19 in 3.89 in (1999)
Month to date precipitation 2.59  
Year to date precipitation 13.36  
Snow  
Snow 0.00 in 0.00 in - ()
Month to date snowfall 0.0  
Since 1 July snowfall 0.1  
Snow Depth -    
Sea Level Pressure  
Sea Level Pressure 30.23 in    
Wind  
Wind Speed 8 mph (NNW)    
Max Wind Speed 14 mph    
Max Gust Speed 23 mph    
Visibility 10 miles    
Events      
T = Trace of Precipitation, MM = Missing Value Source: NWS Daily Summary

Daily Weather History Graph

Daily Weather History Graph

Search for Another Location

Airport or City:

Trip Planner

Search our weather history database for the weather conditions in past years. The results will help you decide how hot, cold, wet, or windy it might be!

Date:

Astronomy

Mar. 13, 2014 Rise Set
Actual Time 7:05 AM CDT 6:59 PM CDT
Civil Twilight 6:41 AM CDT 7:23 PM CDT
Nautical Twilight 6:13 AM CDT 7:51 PM CDT
Astronomical Twilight 5:45 AM CDT 8:19 PM CDT
Moon 4:33 PM CDT (3/13) 5:02 AM CDT (3/13)
Length of Visible Light 12h 42m
Length of Day
11h 54m
Waxing Gibbous, 91% of the Moon is Illuminated
Mar 13
Waxing Gibbous
Mar 16
Full
Mar 23
Last Quarter
Mar 30
New
Apr 7
First Quarter

Hourly Weather History & Observations

Time (CDT) Temp. Windchill Dew Point Humidity Pressure Visibility Wind Dir Wind Speed Gust Speed Precip Events Conditions
12:56 AM 45.0 °F 38.5 °F 33.1 °F 63% 30.15 in 10.0 mi North 13.8 mph - N/A   Clear
1:56 AM 43.0 °F 37.7 °F 33.1 °F 68% 30.17 in 10.0 mi North 9.2 mph - N/A   Clear
2:56 AM 39.9 °F 36.7 °F 32.0 °F 73% 30.17 in 10.0 mi North 4.6 mph - N/A   Clear
3:56 AM 37.9 °F 34.4 °F 33.1 °F 83% 30.18 in 10.0 mi NW 4.6 mph - N/A   Clear
4:56 AM 36.0 °F 32.1 °F 33.1 °F 89% 30.20 in 10.0 mi NW 4.6 mph - N/A   Clear
5:56 AM 35.1 °F 31.0 °F 32.0 °F 89% 30.23 in 10.0 mi NW 4.6 mph - N/A   Clear
6:56 AM 34.0 °F 29.8 °F 32.0 °F 92% 30.25 in 10.0 mi WNW 4.6 mph - N/A   Clear
7:56 AM 37.0 °F - 34.0 °F 89% 30.27 in 10.0 mi Calm Calm - N/A   Clear
8:56 AM 45.0 °F 42.6 °F 34.0 °F 65% 30.30 in 10.0 mi NNW 4.6 mph - N/A   Clear
9:56 AM 50.0 °F - 27.0 °F 41% 30.30 in 10.0 mi NNE 11.5 mph - N/A   Clear
10:56 AM 53.1 °F - 26.1 °F 35% 30.30 in 10.0 mi North 11.5 mph 20.7 mph N/A   Clear
11:56 AM 57.9 °F - 27.0 °F 31% 30.28 in 10.0 mi NNE 13.8 mph - N/A   Clear
12:56 PM 60.1 °F - 27.0 °F 28% 30.27 in 10.0 mi NNE 11.5 mph 23.0 mph N/A   Clear
1:56 PM 62.1 °F - 27.0 °F 26% 30.24 in 10.0 mi North 13.8 mph 20.7 mph N/A   Clear
2:56 PM 62.1 °F - 26.1 °F 25% 30.22 in 10.0 mi North 10.4 mph 18.4 mph N/A   Partly Cloudy
3:56 PM 64.0 °F - 28.0 °F 26% 30.21 in 10.0 mi Calm Calm - N/A   Clear
4:56 PM 64.0 °F - 27.0 °F 25% 30.21 in 10.0 mi Variable 3.5 mph - N/A   Partly Cloudy
5:56 PM 63.0 °F - 28.0 °F 27% 30.21 in 10.0 mi Variable 3.5 mph - N/A   Partly Cloudy
6:54 PM 57.2 °F - 33.8 °F 41% 30.23 in 10.0 mi Calm Calm - N/A   Partly Cloudy
6:56 PM 57.2 °F - 32.0 °F 38% 30.23 in 10.0 mi Calm Calm - N/A   Partly Cloudy
7:56 PM 50.0 °F - 39.0 °F 66% 30.24 in 10.0 mi SSW 5.8 mph - N/A   Partly Cloudy
8:56 PM 48.9 °F - 41.0 °F 74% 30.25 in 10.0 mi SSW 6.9 mph - N/A   Clear
9:56 PM 48.9 °F - 39.9 °F 71% 30.26 in 10.0 mi Calm Calm - N/A   Clear
10:56 PM 48.0 °F - 39.9 °F 74% 30.25 in 10.0 mi Calm Calm - N/A   Clear
11:56 PM 42.1 °F - 39.9 °F 92% 30.25 in 10.0 mi Calm Calm - N/A   Clear